Time,TemperatureF,DewpointF,PressureIn,WindDirection,WindDirectionDegrees,WindSpeedMPH,WindSpeedGustMPH,Humidity,HourlyPrecipIn,Conditions,Clouds,dailyrainin,SoftwareType,DateUTC
2013-05-13 00:12:00,36.7,31.0,30.20,West,267,0.0,0.0,81,0.00,,,0.00,weatherlink.com 1.10,2013-05-13 04:12:00,
2013-05-13 00:27:00,37.1,32.0,30.20,West,267,0.0,0.0,81,0.00,,,0.00,weatherlink.com 1.10,2013-05-13 04:27:00,
2013-05-13 00:42:00,37.6,32.0,30.19,West,267,0.0,0.0,81,0.00,,,0.00,weatherlink.com 1.10,2013-05-13 04:42:00,
2013-05-13 00:57:00,38.0,32.0,30.19,West,267,0.0,0.0,80,0.00,,,0.00,weatherlink.com 1.10,2013-05-13 04:57:00,
2013-05-13 01:12:00,38.3,32.0,30.20,West,267,0.0,0.0,79,0.00,,,0.00,weatherlink.com 1.10,2013-05-13 05:12:00,
2013-05-13 01:27:00,38.6,32.0,30.20,West,267,0.0,0.0,77,0.00,,,0.00,weatherlink.com 1.10,2013-05-13 05:27:00,
2013-05-13 01:42:00,38.9,33.0,30.20,West,267,0.0,0.0,78,0.00,,,0.00,weatherlink.com 1.10,2013-05-13 05:42:00,
2013-05-13 01:57:00,38.9,32.0,30.20,West,267,0.0,0.0,77,0.00,,,0.00,weatherlink.com 1.10,2013-05-13 05:57:00,
2013-05-13 02:12:00,38.9,33.0,30.21,West,267,0.0,0.0,79,0.00,,,0.00,weatherlink.com 1.10,2013-05-13 06:12:00,
2013-05-13 02:27:00,38.5,32.0,30.20,West,267,0.0,0.0,78,0.00,,,0.00,weatherlink.com 1.10,2013-05-13 06:27:00,
2013-05-13 02:42:00,38.3,33.0,30.21,West,267,0.0,0.0,80,0.00,,,0.00,weatherlink.com 1.10,2013-05-13 06:42:00,
2013-05-13 02:57:00,38.0,33.0,30.21,West,267,0.0,0.0,81,0.00,,,0.00,weatherlink.com 1.10,2013-05-13 06:57:00,
2013-05-13 03:12:00,37.7,33.0,30.21,West,267,0.0,0.0,82,0.00,,,0.00,weatherlink.com 1.10,2013-05-13 07:12:00,
2013-05-13 03:27:00,37.4,32.0,30.21,West,267,0.0,0.0,82,0.00,,,0.00,weatherlink.com 1.10,2013-05-13 07:27:00,
2013-05-13 03:42:00,37.0,32.0,30.21,West,267,0.0,0.0,82,0.00,,,0.00,weatherlink.com 1.10,2013-05-13 07:42:00,
2013-05-13 03:57:00,36.5,32.0,30.21,West,267,0.0,0.0,83,0.00,,,0.00,weatherlink.com 1.10,2013-05-13 07:57:00,
2013-05-13 04:12:00,35.9,32.0,30.21,West,267,0.0,0.0,85,0.00,,,0.00,weatherlink.com 1.10,2013-05-13 08:12:00,
2013-05-13 04:27:00,35.4,32.0,30.21,West,267,0.0,0.0,86,0.00,,,0.00,weatherlink.com 1.10,2013-05-13 08:27:00,
2013-05-13 04:42:00,35.1,32.0,30.21,West,267,0.0,0.0,87,0.00,,,0.00,weatherlink.com 1.10,2013-05-13 08:42:00,
2013-05-13 04:57:00,34.8,32.0,30.21,West,267,0.0,0.0,88,0.00,,,0.00,weatherlink.com 1.10,2013-05-13 08:57:00,
2013-05-13 05:12:00,34.5,31.0,30.21,West,267,0.0,0.0,88,0.00,,,0.00,weatherlink.com 1.10,2013-05-13 09:12:00,
2013-05-13 05:27:00,33.9,31.0,30.21,West,267,0.0,0.0,89,0.00,,,0.00,weatherlink.com 1.10,2013-05-13 09:27:00,
2013-05-13 05:42:00,33.4,31.0,30.21,West,267,0.0,0.0,90,0.00,,,0.00,weatherlink.com 1.10,2013-05-13 09:42:00,
2013-05-13 05:57:00,32.8,30.0,30.21,West,267,0.0,0.0,90,0.00,,,0.00,weatherlink.com 1.10,2013-05-13 09:57:00,
2013-05-13 06:12:00,32.4,30.0,30.21,West,267,0.0,0.0,91,0.00,,,0.00,weatherlink.com 1.10,2013-05-13 10:12:00,
2013-05-13 06:27:00,32.2,30.0,30.21,SE,127,0.0,0.0,93,0.00,,,0.00,weatherlink.com 1.10,2013-05-13 10:27:00,
2013-05-13 06:42:00,32.0,30.0,30.21,SE,127,0.0,0.0,93,0.00,,,0.00,weatherlink.com 1.10,2013-05-13 10:42:00,
2013-05-13 06:57:00,31.8,30.0,30.22,SE,127,0.0,0.0,93,0.00,,,0.00,weatherlink.com 1.10,2013-05-13 10:57:00,
2013-05-13 07:12:00,32.0,31.0,30.22,SE,127,0.0,0.0,94,0.00,,,0.00,weatherlink.com 1.10,2013-05-13 11:12:00,
2013-05-13 07:27:00,32.7,31.0,30.23,SE,127,0.0,0.0,94,0.00,,,0.00,weatherlink.com 1.10,2013-05-13 11:27:00,
2013-05-13 07:43:00,34.4,33.0,30.24,SE,127,0.0,0.0,95,0.00,,,0.00,weatherlink.com 1.10,2013-05-13 11:43:00,
2013-05-13 07:58:00,36.0,34.0,30.24,SE,132,0.0,1.0,91,0.00,,,0.00,weatherlink.com 1.10,2013-05-13 11:58:00,
2013-05-13 08:13:00,37.6,34.0,30.25,SE,132,0.0,0.0,87,0.00,,,0.00,weatherlink.com 1.10,2013-05-13 12:13:00,
2013-05-13 08:28:00,39.0,34.0,30.25,SSE,150,0.0,1.0,81,0.00,,,0.00,weatherlink.com 1.10,2013-05-13 12:28:00,
2013-05-13 08:43:00,40.4,33.0,30.26,SSE,149,0.0,1.0,76,0.00,,,0.00,weatherlink.com 1.10,2013-05-13 12:43:00,
2013-05-13 08:58:00,41.6,34.0,30.26,ESE,118,0.0,2.0,73,0.00,,,0.00,weatherlink.com 1.10,2013-05-13 12:58:00,
2013-05-13 09:13:00,43.2,33.0,30.26,SE,142,0.0,2.0,67,0.00,,,0.00,weatherlink.com 1.10,2013-05-13 13:13:00,
2013-05-13 09:28:00,47.7,34.0,30.27,SSE,150,0.0,1.0,60,0.00,,,0.00,weatherlink.com 1.10,2013-05-13 13:28:00,
2013-05-13 09:43:00,49.7,33.0,30.27,SSW,195,0.0,1.0,54,0.00,,,0.00,weatherlink.com 1.10,2013-05-13 13:43:00,
2013-05-13 09:58:00,52.2,32.0,30.27,WSW,241,0.0,1.0,47,0.00,,,0.00,weatherlink.com 1.10,2013-05-13 13:58:00,
2013-05-13 10:13:00,53.6,32.0,30.27,WNW,295,0.0,1.0,44,0.00,,,0.00,weatherlink.com 1.10,2013-05-13 14:13:00,
2013-05-13 10:28:00,53.7,31.0,30.27,WNW,300,0.0,2.0,42,0.00,,,0.00,weatherlink.com 1.10,2013-05-13 14:28:00,
2013-05-13 10:43:00,53.7,31.0,30.27,WSW,245,0.0,2.0,43,0.00,,,0.00,weatherlink.com 1.10,2013-05-13 14:43:00,
2013-05-13 10:58:00,55.0,30.0,30.27,ESE,103,0.0,2.0,39,0.00,,,0.00,weatherlink.com 1.10,2013-05-13 14:58:00,
2013-05-13 11:13:00,55.1,32.0,30.27,SE,136,1.0,3.0,41,0.00,,,0.00,weatherlink.com 1.10,2013-05-13 15:13:00,
2013-05-13 11:28:00,57.5,32.0,30.27,West,274,1.0,3.0,38,0.00,,,0.00,weatherlink.com 1.10,2013-05-13 15:28:00,
2013-05-13 11:43:00,56.1,31.0,30.27,West,259,0.0,2.0,39,0.00,,,0.00,weatherlink.com 1.10,2013-05-13 15:43:00,
2013-05-13 11:58:00,55.1,31.0,30.27,West,277,1.0,2.0,40,0.00,,,0.00,weatherlink.com 1.10,2013-05-13 15:58:00,
2013-05-13 12:13:00,56.5,31.0,30.27,WSW,256,1.0,3.0,38,0.00,,,0.00,weatherlink.com 1.10,2013-05-13 16:13:00,
2013-05-13 12:28:00,56.3,30.0,30.27,WSW,238,1.0,4.0,37,0.00,,,0.00,weatherlink.com 1.10,2013-05-13 16:28:00,
2013-05-13 12:43:00,55.4,29.0,30.26,West,262,1.0,3.0,37,0.00,,,0.00,weatherlink.com 1.10,2013-05-13 16:43:00,
2013-05-13 12:58:00,55.7,28.0,30.26,West,269,2.0,5.0,35,0.00,,,0.00,weatherlink.com 1.10,2013-05-13 16:58:00,
2013-05-13 13:13:00,56.1,27.0,30.26,WNW,283,1.0,6.0,33,0.00,,,0.00,weatherlink.com 1.10,2013-05-13 17:13:00,
2013-05-13 13:28:00,56.0,29.0,30.26,WNW,286,1.0,8.0,35,0.00,,,0.00,weatherlink.com 1.10,2013-05-13 17:28:00,
2013-05-13 13:43:00,56.2,27.0,30.25,WNW,291,0.0,5.0,32,0.00,,,0.00,weatherlink.com 1.10,2013-05-13 17:43:00,
2013-05-13 13:58:00,57.0,27.0,30.25,SW,236,3.0,7.0,32,0.00,,,0.00,weatherlink.com 1.10,2013-05-13 17:58:00,
2013-05-13 14:13:00,58.0,27.0,30.25,WNW,302,0.0,4.0,30,0.00,,,0.00,weatherlink.com 1.10,2013-05-13 18:13:00,
2013-05-13 14:28:00,58.0,27.0,30.25,West,271,1.0,5.0,30,0.00,,,0.00,weatherlink.com 1.10,2013-05-13 18:28:00,
2013-05-13 14:44:00,57.3,27.0,30.24,West,259,2.0,8.0,31,0.00,,,0.00,weatherlink.com 1.10,2013-05-13 18:44:00,
2013-05-13 14:59:00,57.2,27.0,30.24,West,278,1.0,6.0,31,0.00,,,0.00,weatherlink.com 1.10,2013-05-13 18:59:00,
2013-05-13 15:14:00,57.6,24.0,30.25,SW,228,1.0,4.0,27,0.00,,,0.00,weatherlink.com 1.10,2013-05-13 19:14:00,
2013-05-13 15:29:00,57.8,26.0,30.24,NNW,331,1.0,4.0,29,0.00,,,0.00,weatherlink.com 1.10,2013-05-13 19:29:00,
2013-05-13 15:44:00,57.3,25.0,30.23,WNW,302,0.0,4.0,29,0.00,,,0.00,weatherlink.com 1.10,2013-05-13 19:44:00,
2013-05-13 15:59:00,57.5,23.0,30.23,West,260,2.0,4.0,26,0.00,,,0.00,weatherlink.com 1.10,2013-05-13 19:59:00,
2013-05-13 16:14:00,58.2,25.0,30.22,NW,304,1.0,2.0,28,0.00,,,0.00,weatherlink.com 1.10,2013-05-13 20:14:00,
2013-05-13 16:29:00,58.7,24.0,30.22,WNW,302,0.0,5.0,26,0.00,,,0.00,weatherlink.com 1.10,2013-05-13 20:29:00,
2013-05-13 16:44:00,58.7,25.0,30.21,North,350,0.0,3.0,28,0.00,,,0.00,weatherlink.com 1.10,2013-05-13 20:44:00,
2013-05-13 16:59:00,59.7,25.0,30.20,North,350,0.0,3.0,26,0.00,,,0.00,weatherlink.com 1.10,2013-05-13 20:59:00,
2013-05-13 17:14:00,59.9,26.0,30.20,West,262,0.0,2.0,27,0.00,,,0.00,weatherlink.com 1.10,2013-05-13 21:14:00,
2013-05-13 17:44:00,59.6,26.0,30.19,NW,317,2.0,3.0,28,0.00,,,0.00,weatherlink.com 1.10,2013-05-13 21:44:00,
2013-05-13 17:59:00,60.0,28.0,30.19,West,281,0.0,5.0,30,0.00,,,0.00,weatherlink.com 1.10,2013-05-13 21:59:00,
2013-05-13 18:14:00,59.7,27.0,30.19,West,262,2.0,6.0,29,0.00,,,0.00,weatherlink.com 1.10,2013-05-13 22:14:00,
2013-05-13 18:29:00,59.4,29.0,30.18,West,271,0.0,4.0,32,0.00,,,0.00,weatherlink.com 1.10,2013-05-13 22:29:00,
2013-05-13 18:44:00,59.4,29.0,30.18,WSW,246,0.0,3.0,31,0.00,,,0.00,weatherlink.com 1.10,2013-05-13 22:44:00,
2013-05-13 18:59:00,61.4,30.0,30.18,SSW,204,0.0,1.0,30,0.00,,,0.00,weatherlink.com 1.10,2013-05-13 22:59:00,
2013-05-13 19:14:00,60.5,30.0,30.18,West,262,0.0,1.0,32,0.00,,,0.00,weatherlink.com 1.10,2013-05-13 23:14:00,
2013-05-13 19:29:00,59.4,29.0,30.18,West,276,0.0,2.0,31,0.00,,,0.00,weatherlink.com 1.10,2013-05-13 23:29:00,
2013-05-13 19:44:00,58.9,30.0,30.18,West,276,0.0,1.0,34,0.00,,,0.00,weatherlink.com 1.10,2013-05-13 23:44:00,
2013-05-13 19:59:00,58.6,29.0,30.17,West,276,0.0,0.0,33,0.00,,,0.00,weatherlink.com 1.10,2013-05-13 23:59:00,
2013-05-13 20:14:00,57.7,30.0,30.17,West,276,0.0,0.0,35,0.00,,,0.00,weatherlink.com 1.10,2013-05-14 00:14:00,
2013-05-13 20:29:00,56.5,30.0,30.17,West,276,0.0,0.0,37,0.00,,,0.00,weatherlink.com 1.10,2013-05-14 00:29:00,
2013-05-13 20:44:00,55.1,29.0,30.17,West,276,0.0,0.0,37,0.00,,,0.00,weatherlink.com 1.10,2013-05-14 00:44:00,
2013-05-13 20:59:00,54.0,29.0,30.17,West,276,0.0,0.0,38,0.00,,,0.00,weatherlink.com 1.10,2013-05-14 00:59:00,
2013-05-13 21:14:00,53.1,28.0,30.17,West,277,0.0,0.0,38,0.00,,,0.00,weatherlink.com 1.10,2013-05-14 01:14:00,
2013-05-13 21:29:00,52.6,28.0,30.16,South,181,0.0,0.0,39,0.00,,,0.00,weatherlink.com 1.10,2013-05-14 01:29:00,
2013-05-13 21:44:00,51.9,27.0,30.17,SW,235,0.0,1.0,39,0.00,,,0.00,weatherlink.com 1.10,2013-05-14 01:44:00,
2013-05-13 21:59:00,51.3,28.0,30.17,SW,233,0.0,0.0,40,0.00,,,0.00,weatherlink.com 1.10,2013-05-14 01:59:00,
2013-05-13 22:14:00,50.7,28.0,30.17,SE,146,0.0,1.0,41,0.00,,,0.00,weatherlink.com 1.10,2013-05-14 02:14:00,
2013-05-13 22:29:00,50.7,27.0,30.16,SE,134,0.0,2.0,40,0.00,,,0.00,weatherlink.com 1.10,2013-05-14 02:29:00,
2013-05-13 22:44:00,50.7,26.0,30.16,SSE,154,0.0,2.0,39,0.00,,,0.00,weatherlink.com 1.10,2013-05-14 02:44:00,
2013-05-13 22:59:00,50.6,27.0,30.16,SE,146,0.0,1.0,40,0.00,,,0.00,weatherlink.com 1.10,2013-05-14 02:59:00,
2013-05-13 23:14:00,50.6,27.0,30.16,SE,141,0.0,2.0,40,0.00,,,0.00,weatherlink.com 1.10,2013-05-14 03:14:00,
2013-05-13 23:29:00,50.4,27.0,30.16,SE,146,0.0,1.0,40,0.00,,,0.00,weatherlink.com 1.10,2013-05-14 03:29:00,
2013-05-13 23:44:00,50.6,26.0,30.15,SE,127,0.0,2.0,39,0.00,,,0.00,weatherlink.com 1.10,2013-05-14 03:44:00,
2013-05-13 23:59:00,50.6,26.0,30.15,SE,141,0.0,3.0,39,0.00,,,0.00,weatherlink.com 1.10,2013-05-14 03:59:00,